Wind_Speed
36 34 32 32 32 31 30 30 30 31 33 38 42 45 51 55 55 54 52 48 44 45 54 55 61 61 64 63 60 64 72 66 65 73 74 75 71 72 72 72 75 73 76 73 69 64 55 55 58 53 53 56 59 57
31 29 28 25 25 23 23 23 23 23 24 28 34 40 44 48 49 47 50 47 47 49 51 55 58 61 60 60 61 65 60 63 65 71 70 74 72 75 74 72 75 72 68 75 72 62 62 64 67 63 61 60 60 54
27 25 23 22 19 16 15 15 17 18 20 24 28 32 36 39 41 44 46 45 45 48 52 57 59 57 57 57 57 55 54 57 62 69 71 78 80 72 66 68 71 71 71 79 74 66 66 66 64 66 68 66 65 62
22 20 19 15 11 8 7 9 11 14 17 20 23 26 30 33 38 42 42 42 44 49 49 53 53 50 45 46 49 49 54 58 64 71 77 79 75 64 68 73 73 73 73 72 77 74 70 66 59 69 67 70 68 67
19 18 15 9 5 2 2 6 12 16 19 21 23 26 29 32 36 40 42 44 48 47 48 50 47 49 51 47 49 48 53 58 65 71 73 73 68 67 71 75 75 73 71 71 71 74 73 69 71 67 66 72 71 67
17 15 12 7 4 2 4 7 9 13 17 20 23 26 29 32 36 39 43 47 44 43 44 43 45 43 44 46 47 48 54 55 62 68 69 66 70 68 74 71 71 70 69 66 65 72 75 74 71 70 70 70 70 67
15 14 11 9 8 7 8 9 10 13 15 17 20 24 27 30 32 36 37 34 36 39 40 43 43 43 44 44 45 48 52 55 58 63 61 68 74 72 73 72 72 73 74 71 65 67 72 73 70 70 71 70 69 68
14 14 12 12 12 13 14 14 13 14 15 17 19 22 26 28 30 31 32 33 35 35 38 41 44 45 45 45 43 44 47 51 56 59 64 70 73 74 74 80 80 78 75 76 71 68 71 69 69 69 69 70 68 66
15 15 16 16 16 17 18 20 21 21 20 19 19 22 25 27 28 32 33 35 38 41 42 42 41 42 42 41 39 40 43 48 54 58 68 71 76 69 69 74 75 77 75 72 71 70 72 76 74 70 70 70 66 66
17 17 18 20 20 19 21 23 25 26 25 26 28 27 29 31 33 35 36 36 35 36 37 37 36 35 32 32 32 36 41 47 52 58 65 67 71 68 68 73 79 83 81 78 77 75 75 75 70 68 69 69 69 70
19 20 21 21 22 23 23 23 23 24 25 25 24 27 30 31 33 34 35 35 34 32 30 30 29 29 29 28 30 35 39 43 49 54 60 60 59 58 65 71 77 82 83 82 79 76 77 76 73 71 72 76 76 75
22 23 23 24 23 24 24 25 24 23 21 20 23 26 28 30 30 30 29 28 27 25 27 28 29 29 29 29 31 35 36 40 45 50 54 51 55 56 60 70 72 77 81 83 82 82 80 79 75 72 73 76 76 76
26 26 26 26 26 25 24 22 21 22 22 22 21 19 18 19 20 21 22 24 26 26 27 28 29 30 26 29 33 31 34 39 44 48 50 51 54 55 62 73 76 75 77 80 80 80 81 82 81 80 79 78 78 77
29 29 28 28 28 26 25 24 23 21 18 17 18 19 19 19 19 20 20 21 22 24 25 26 24 21 28 29 30 28 29 31 36 40 45 48 50 53 61 70 77 79 79 79 81 81 82 83 84 83 82 81 78 78
31 32 32 31 30 29 27 25 23 22 20 18 16 14 14 14 16 18 19 20 21 22 20 18 16 18 24 25 24 24 25 28 35 41 42 43 45 50 56 64 73 77 78 79 80 81 82 84 85 84 83 81 82 82
33 32 33 32 32 31 29 27 26 23 20 18 17 15 14 14 14 16 17 18 17 17 12 12 14 20 23 22 22 24 24 25 32 34 34 38 43 47 51 57 62 69 76 80 82 82 83 85 86 86 86 85 84 85
32 32 34 34 34 32 30 28 26 24 22 19 19 16 14 15 13 11 12 14 9 8 12 12 9 8 11 14 14 15 16 16 22 29 31 33 40 45 49 54 61 67 73 78 81 83 85 86 87 87 87 87 88 89
25 27 29 30 30 30 28 29 28 26 24 22 21 20 17 14 11 11 14 14 14 14 14 14 12 9 8 10 11 13 14 17 21 24 29 34 37 43 47 52 58 64 70 75 80 84 87 88 89 89 90 92 93 94
18 21 23 24 24 23 23 23 22 23 25 23 22 22 19 17 14 13 13 12 13 15 15 13 13 15 16 18 19 19 19 20 22 25 29 34 39 42 47 52 56 61 66 72 77 81 84 87 90 92 94 96 97 98
13 15 17 18 18 18 16 16 14 15 15 17 18 18 17 17 17 16 17 15 13 10 8 5 3 3 5 9 11 15 20 24 27 28 30 34 38 42 47 51 54 58 63 68 72 76 79 81 84 87 90 92 94 97
9 10 12 13 13 15 16 17 16 16 15 15 16 14 15 15 16 17 17 17 16 13 11 10 9 10 11 13 15 18 21 23 26 30 34 40 42 46 50 53 57 60 65 69 71 74 77 80 83 85 87 89 91 94
9 8 7 6 7 8 11 11 12 14 15 16 17 17 16 15 15 14 14 13 13 15 17 19 21 22 24 26 27 29 31 33 34 36 38 41 45 49 52 56 59 62 64 67 69 72 74 75 76 78 79 82 84 85
11 7 5 1 2 5 8 9 10 12 13 15 17 18 19 18 19 19 19 20 21 22 24 26 29 32 35 37 39 41 42 44 46 48 50 52 53 55 57 58 60 62 64 66 68 71 73 74 76 77 79 80 82 83
14 12 10 8 7 8 11 13 15 17 18 20 22 24 25 27 27 28 30 31 33 35 38 41 43 45 46 49 52 54 56 57 58 59 60 61 61 62 62 63 64 65 66 68 69 71 72 74 75 77 78 79 80 82
19 19 19 18 17 17 19 21 22 22 24 27 28 30 32 34 34 36 38 41 44 48 49 51 53 56 59 61 62 62 61 60 59 57 57 57 58 58 60 61 63 65 66 67 69 71 72 73 73 75 76 77 79 81
25 25 26 25 25 26 27 28 29 31 33 35 36 37 38 38 40 44 46 49 51 54 56 59 60 61 61 59 59 59 60 60 59 60 60 60 59 59 59 60 60 62 64 65 67 68 69 71 72 71 72 72 72 73
31 30 31 31 32 33 35 36 37 38 39 40 39 40 42 44 46 49 51 53 56 58 59 58 56 53 52 52 53 53 54 54 55 56 56 56 57 57 58 58 58 58 59 60 60 61 62 62 63 64 64 64 64 64
33 34 35 37 39 41 42 43 44 45 44 43 44 47 47 49 50 51 53 54 55 52 49 48 47 47 46 45 45 46 46 46 46 46 47 47 48 48 48 48 49 50 51 52 53 54 54 55 55 56 56 56 57 57
38 40 41 43 45 47 48 47 47 46 48 49 48 47 48 48 49 50 50 49 47 45 45 44 42 42 40 40 40 39 39 39 40 40 41 41 42 42 42 43 44 45 46 47 48 48 49 50 50 51 51 52 53 53
45 46 47 48 49 49 48 48 48 48 48 46 45 45 46 47 47 46 46 44 43 42 41 39 37 36 35 35 35 35 35 35 36 36 37 37 37 38 38 39 40 41 42 43 44 45 46 46 47 48 49 49 50 51
50 50 50 50 48 48 48 48 48 46 43 43 44 44 44 43 43 41 40 39 37 36 36 36 36 36 36 35 35 35 34 33 34 34 34 34 35 35 36 37 37 38 39 40 41 42 43 43 44 45 46 47 47 48
46 47 46 46 45 46 46 44 42 42 41 41 41 41 40 38 37 36 36 35 35 35 35 35 34 34 33 33 32 32 32 32 32 32 33 33 34 34 35 35 36 37 38 38 39 40 41 42 43 43 44 44 45 45
43 43 43 43 41 40 39 40 39 39 38 38 37 37 36 35 34 34 34 33 33 32 32 32 32 32 32 32 32 32 32 32 32 32 32 32 32 32 33 34 35 35 36 37 37 37 38 39 39 40 41 41 41 41
Wind_Direction
305 299 296 292 286 281 273 264 257 248 241 235 231 229 227 227 227 227 227 225 219 213 211 209 215 216 220 222 219 218 218 213 211 214 214 212 212 215 208 207 207 211 211 208 214 214 218 220 226 233 237 242 247 252
310 306 303 299 294 285 273 263 255 245 234 227 222 222 222 222 222 221 220 217 212 208 207 207 211 215 216 218 219 220 215 214 208 212 212 213 210 216 208 205 209 212 214 209 214 215 212 216 216 228 233 239 245 247
315 312 315 312 297 282 266 251 244 232 219 214 213 212 213 213 212 212 212 210 207 206 205 207 212 214 214 215 216 216 216 214 209 210 209 209 212 213 206 204 210 214 216 214 212 216 219 226 228 236 241 241 247 253
325 329 330 318 302 289 264 232 215 205 201 199 197 198 199 201 202 204 204 204 202 203 206 207 210 212 209 211 214 212 211 210 211 208 211 211 214 210 202 204 208 213 215 217 215 219 222 225 232 234 242 247 249 254
344 344 343 336 332 307 214 190 187 181 179 180 180 184 187 188 191 194 194 195 198 200 201 202 204 204 204 206 209 210 213 212 211 211 212 215 210 207 203 206 209 213 215 217 217 221 224 226 230 239 242 249 256 259
358 358 1 14 37 79 136 149 166 169 169 168 170 174 178 181 186 191 192 194 193 194 196 197 199 200 203 204 208 208 213 216 213 213 213 212 210 209 204 205 210 215 215 219 221 222 226 228 233 239 244 249 253 256
15 16 27 45 69 94 111 126 139 146 152 159 164 165 170 175 180 182 187 186 186 188 187 188 195 197 200 204 207 209 213 216 216 213 210 207 209 209 205 204 211 215 216 218 222 226 232 234 234 240 245 249 252 257
37 38 52 65 78 93 100 105 112 114 128 140 148 153 158 164 172 176 173 176 179 177 183 188 192 197 202 207 208 209 214 216 216 212 211 211 211 211 204 206 210 213 215 218 221 224 230 237 239 243 245 249 253 257
55 60 72 78 85 92 99 102 103 107 111 118 131 138 145 151 154 162 167 167 173 179 184 190 197 202 205 209 210 210 213 216 217 211 211 214 217 213 209 208 211 215 217 219 222 226 230 236 239 243 246 251 254 256
69 74 80 86 90 96 103 106 109 113 120 128 134 143 148 150 154 158 161 169 178 185 190 195 201 206 210 213 212 213 214 218 218 216 217 217 218 215 211 211 213 214 217 220 223 226 231 236 240 244 247 251 256 259
78 81 86 89 93 97 99 103 111 120 124 129 134 138 143 151 157 163 167 173 181 187 190 193 198 204 209 213 211 212 214 218 219 221 221 221 223 224 215 213 216 217 220 222 226 230 234 238 242 243 245 248 251 256
81 84 86 89 92 96 102 106 108 110 114 123 135 145 151 158 164 167 171 176 178 180 184 191 200 206 208 206 209 215 213 216 220 220 222 222 221 221 222 216 218 223 222 226 230 233 235 238 241 245 248 250 253 258
80 83 86 89 91 93 96 100 106 114 119 124 129 138 147 154 158 165 168 169 177 182 188 197 207 212 208 209 217 213 213 213 219 224 221 219 217 217 217 220 222 225 226 229 233 236 237 238 241 243 247 251 256 258
79 80 83 84 86 89 92 94 98 103 111 122 133 142 151 159 164 168 173 179 185 194 201 207 210 208 216 218 219 221 215 214 223 226 227 226 220 217 214 218 222 226 229 230 233 236 238 240 242 245 249 254 257 261
82 81 81 82 84 84 84 85 87 95 102 112 122 134 138 150 158 165 170 182 193 202 206 208 191 202 225 226 226 223 216 211 218 224 223 223 222 220 219 220 223 227 230 232 234 237 239 241 244 248 252 255 257 260
79 82 83 81 79 78 80 81 83 86 92 99 107 115 121 132 146 155 169 186 201 202 183 199 199 192 210 218 220 221 218 210 221 227 224 218 223 224 224 225 227 229 231 234 236 239 241 243 245 249 252 256 259 262
81 79 77 75 74 76 75 74 73 75 88 95 100 104 112 121 130 147 175 190 194 152 172 187 194 191 185 195 210 222 224 220 226 229 228 223 220 222 225 228 230 232 234 236 239 241 244 246 249 252 255 258 262 264
89 88 86 82 80 79 77 78 82 85 83 82 87 93 94 101 118 143 153 157 158 155 160 169 173 160 165 197 216 222 233 235 233 229 225 224 223 224 227 229 232 235 237 240 242 244 246 249 251 253 256 258 261 264
96 93 90 89 86 85 86 81 85 83 88 97 104 104 107 110 116 121 124 136 152 158 168 168 176 189 195 200 207 213 219 226 228 228 228 226 227 227 230 233 235 237 239 242 244 246 249 251 253 255 257 260 262 265
93 92 88 83 81 84 88 85 81 78 77 78 78 79 88 95 97 106 104 97 93 96 106 125 158 193 225 236 239 238 232 232 231 232 235 240 238 238 238 240 241 243 244 246 248 250 252 255 256 258 260 262 264 266
123 110 94 81 70 65 63 59 52 54 60 55 66 73 72 71 60 53 40 34 27 20 8 347 332 316 295 278 268 260 254 249 243 243 243 240 240 242 244 245 246 247 248 250 252 254 256 258 260 261 264 265 267 269
155 132 110 88 62 43 42 38 40 32 27 21 20 16 18 16 11 6 3 348 343 332 325 320 315 308 303 299 294 288 283 278 271 266 260 257 255 253 253 252 252 253 254 256 258 260 262 265 267 268 269 270 272 273
190 189 177 197 342 351 350 349 348 347 347 348 344 341 337 335 331 327 321 316 310 305 300 296 292 289 287 283 280 277 274 271 270 269 268 267 265 263 263 262 262 262 262 263 264 266 268 269 271 273 274 275 276 277
214 224 233 247 267 286 294 302 308 309 313 314 316 316 315 313 309 306 304 303 300 297 293 290 285 280 277 274 273 272 269 267 265 264 264 264 265 267 268 270 271 272 273 274 275 275 276 276 276 276 276 276 277 278
227 236 247 255 261 270 279 287 291 294 296 298 300 300 299 299 297 295 294 292 290 289 287 283 280 277 274 271 269 269 270 272 274 277 279 279 277 275 274 273 272 271 271 271 271 272 273 274 275 276 277 278 279 280
245 248 255 262 269 275 280 285 289 292 293 293 294 293 294 297 298 295 292 290 289 287 284 281 277 274 276 279 280 280 279 278 278 277 277 277 276 275 274 274 273 274 274 274 274 275 275 277 278 279 279 280 281 283
252 258 265 271 277 282 285 288 290 291 291 292 293 295 297 297 295 292 291 289 286 283 281 281 285 287 284 280 280 280 279 279 278 278 278 278 278 278 278 278 278 278 278 278 279 280 280 281 282 283 284 285 286 287
267 272 276 279 283 286 288 290 291 292 294 297 299 299 299 296 294 292 290 287 286 288 291 290 287 287 287 285 283 282 281 281 281 281 281 280 280 280 280 280 280 279 279 279 281 282 283 284 285 286 287 288 289 290
271 275 278 281 284 286 287 289 292 296 298 299 298 297 297 296 293 290 290 291 293 293 290 291 291 289 288 287 287 286 286 284 283 283 283 282 283 283 283 283 284 284 285 285 286 287 287 288 288 289 290 291 292 293
273 277 278 280 282 285 290 294 297 297 299 300 300 298 296 294 293 293 294 294 293 294 295 294 294 294 293 293 292 291 290 289 288 287 286 286 285 285 286 285 285 285 286 286 287 288 288 289 290 291 292 293 294 295
274 277 279 283 287 291 293 294 297 299 298 298 297 295 293 293 295 294 294 294 296 297 297 297 297 297 296 295 294 292 291 291 290 290 290 290 290 290 289 289 289 289 289 290 290 290 291 292 292 293 294 295 296 297
277 279 283 286 288 291 294 295 295 296 296 294 293 294 295 294 295 297 299 299 299 299 298 297 297 297 297 296 296 296 295 294 294 293 293 293 292 292 292 292 292 292 292 293 293 294 294 294 295 295 295 296 297 298
280 282 286 288 289 291 292 294 295 295 295 296 296 295 294 299 300 301 300 300 300 300 299 299 299 299 298 299 299 299 299 298 297 296 295 295 294 294 294 293 293 293 293 293 294 294 294 295 296 297 298 299 300 300
Height
10045 10039 10034 10029 10024 10020 10017 10017 10019 10021 10025 10030 10037 10045 10054 10062 10072 10084 10098 10109 10122 10136 10144 10161 10166 10180 10185 10198 10211 10213 10212 10242 10260 10272 10288 10300 10320 10331 10347 10365 10381 10390 10400 10416 10425 10442 10455 10458 10457 10463 10470 10471 10471 10480
10034 10028 10023 10018 10013 10009 10007 10007 10008 10011 10015 10020 10026 10033 10041 10050 10060 10075 10086 10099 10109 10121 10138 10147 10156 10164 10176 10184 10195 10204 10226 10235 10251 10261 10281 10295 10308 10318 10339 10357 10368 10384 10397 10406 10414 10433 10438 10432 10432 10441 10451 10454 10459 10469
10026 10021 10014 10010 10006 10004 10002 10001 10002 10004 10007 10013 10019 10026 10034 10044 10055 10067 10078 10091 10103 10116 10125 10134 10143 10155 10167 10178 10190 10206 10221 10234 10247 10257 10269 10281 10291 10310 10334 10353 10361 10374 10381 10394 10407 10418 10423 10427 10435 10434 10437 10445 10451 10458
10021 10015 10010 10007 10003 10000 9999 9998 9999 10001 10004 10009 10015 10022 10030 10039 10049 10060 10074 10087 10098 10110 10120 10130 10142 10155 10169 10181 10192 10203 10213 10222 10233 10243 10253 10266 10287 10307 10324 10336 10348 10357 10366 10380 10395 10401 10410 10416 10419 10420 10425 10432 10439 10443
10018 10013 10009 10005 10002 10000 9998 9998 9999 10000 10003 10008 10014 10020 10028 10037 10047 10058 10070 10081 10090 10104 10115 10127 10140 10152 10160 10175 10184 10196 10205 10213 10223 10233 10247 10263 10284 10298 10311 10324 10336 10348 10361 10369 10382 10388 10396 10404 10406 10409 10415 10417 10425 10430
10017 10013 10010 10006 10003 10002 10000 10000 10002 10004 10006 10010 10015 10021 10029 10038 10047 10055 10065 10075 10091 10103 10115 10127 10139 10151 10160 10168 10178 10191 10197 10207 10215 10228 10242 10260 10277 10288 10299 10317 10331 10342 10353 10360 10369 10373 10381 10391 10399 10404 10406 10407 10409 10412
10020 10016 10012 10009 10006 10005 10004 10005 10006 10009 10012 10016 10021 10029 10036 10044 10052 10063 10073 10087 10096 10106 10117 10127 10140 10149 10155 10163 10174 10184 10192 10201 10209 10222 10239 10255 10263 10275 10293 10308 10317 10325 10334 10344 10356 10365 10370 10380 10388 10390 10393 10396 10396 10399
10024 10020 10016 10013 10011 10010 10010 10011 10013 10016 10019 10023 10028 10035 10042 10049 10057 10066 10078 10089 10100 10112 10121 10128 10134 10143 10151 10160 10172 10183 10190 10198 10206 10219 10231 10241 10252 10263 10279 10284 10292 10307 10323 10332 10343 10353 10361 10368 10375 10378 10382 10383 10384 10388
10029 10026 10023 10020 10018 10018 10018 10019 10021 10024 10027 10032 10038 10044 10050 10058 10067 10075 10084 10094 10101 10109 10117 10125 10134 10143 10151 10160 10170 10180 10187 10194 10201 10214 10221 10232 10239 10253 10273 10287 10299 10305 10316 10328 10336 10345 10349 10351 10358 10366 10370 10368 10373 10374
10036 10033 10030 10027 10026 10027 10027 10027 10029 10032 10035 10040 10045 10052 10059 10065 10072 10079 10088 10095 10105 10113 10120 10130 10138 10146 10155 10163 10170 10177 10184 10189 10196 10205 10213 10223 10229 10247 10265 10276 10283 10292 10303 10312 10321 10331 10335 10339 10349 10353 10353 10357 10358 10360
10042 10040 10038 10036 10035 10036 10038 10039 10040 10042 10045 10050 10055 10059 10065 10072 10079 10086 10092 10100 10108 10117 10125 10133 10139 10146 10151 10158 10165 10171 10178 10184 10192 10198 10207 10218 10231 10243 10255 10268 10274 10283 10293 10303 10310 10316 10321 10328 10336 10339 10341 10343 10344 10344
10051 10049 10047 10046 10046 10046 10046 10048 10051 10055 10059 10063 10066 10070 10073 10079 10085 10092 10099 10106 10113 10121 10127 10132 10136 10142 10147 10153 10159 10164 10171 10178 10183 10188 10196 10209 10223 10235 10250 10260 10268 10273 10282 10289 10297 10303 10309 10315 10321 10324 10325 10326 10328 10328
10060 10058 10057 10056 10056 10056 10057 10058 10060 10062 10065 10070 10076 10081 10086 10091 10097 10102 10108 10114 10117 10122 10126 10131 10135 10139 10146 10151 10152 10160 10166 10171 10174 10179 10188 10198 10210 10224 10237 10248 10256 10261 10270 10277 10283 10289 10294 10299 10304 10307 10308 10309 10310 10310
10070 10068 10067 10067 10067 10067 10067 10068 10069 10071 10074 10077 10081 10085 10089 10094 10100 10106 10110 10115 10120 10123 10126 10130 10136 10143 10142 10145 10150 10156 10163 10169 10173 10177 10184 10193 10203 10214 10223 10232 10241 10248 10254 10262 10268 10274 10278 10282 10285 10289 10291 10292 10292 10291
10080 10079 10077 10076 10076 10076 10075 10076 10077 10079 10081 10083 10086 10090 10093 10098 10102 10107 10112 10115 10118 10122 10127 10132 10138 10141 10141 10145 10150 10154 10160 10166 10168 10169 10176 10187 10198 10205 10213 10220 10227 10234 10242 10248 10254 10258 10263 10267 10270 10271 10272 10273 10272 10271
10091 10090 10087 10086 10085 10085 10084 10084 10085 10086 10087 10089 10091 10094 10097 10101 10105 10109 10112 10114 10117 10121 10128 10131 10134 10138 10141 10144 10148 10150 10156 10162 10164 10167 10174 10183 10191 10198 10205 10212 10219 10225 10229 10233 10238 10242 10245 10248 10250 10252 10252 10252 10252 10251
10101 10100 10097 10096 10095 10095 10094 10095 10095 10094 10095 10096 10096 10099 10101 10103 10107 10111 10114 10115 10119 10125 10127 10130 10133 10136 10140 10144 10147 10149 10153 10159 10162 10165 10169 10176 10182 10187 10194 10199 10205 10211 10215 10218 10222 10225 10228 10229 10232 10233 10233 10232 10231 10230
10110 10109 10108 10108 10107 10106 10107 10105 10105 10106 10104 10103 10103 10104 10107 10109 10111 10113 10116 10119 10123 10126 10129 10131 10134 10135 10138 10142 10145 10146 10149 10153 10156 10159 10164 10168 10174 10179 10184 10188 10192 10195 10199 10203 10205 10207 10209 10210 10212 10213 10212 10211 10209 10207
10115 10115 10115 10115 10115 10115 10114 10114 10115 10113 10113 10113 10113 10114 10115 10116 10118 10120 10122 10123 10125 10127 10130 10132 10135 10138 10140 10142 10143 10145 10147 10148 10151 10154 10157 10160 10164 10167 10171 10174 10177 10180 10182 10185 10187 10188 10189 10191 10191 10191 10191 10189 10187 10185
10120 10120 10120 10120 10121 10122 10122 10121 10121 10120 10120 10120 10119 10119 10119 10120 10121 10123 10124 10127 10129 10132 10134 10136 10137 10138 10140 10141 10142 10144 10145 10146 10148 10150 10152 10154 10157 10159 10161 10163 10165 10166 10167 10168 10169 10169 10170 10170 10170 10169 10168 10165 10163 10160
10124 10124 10124 10125 10126 10127 10126 10126 10125 10125 10125 10126 10126 10127 10127 10128 10129 10130 10131 10131 10133 10134 10135 10137 10138 10139 10140 10141 10141 10142 10141 10141 10142 10143 10144 10145 10146 10147 10148 10148 10149 10149 10150 10151 10151 10151 10151 10150 10149 10148 10146 10144 10141 10137
10127 10127 10127 10128 10129 10130 10130 10131 10131 10131 10130 10130 10130 10131 10131 10132 10133 10133 10134 10135 10136 10137 10137 10137 10137 10136 10136 10135 10135 10134 10134 10134 10134 10134 10134 10135 10135 10135 10135 10134 10134 10134 10134 10134 10133 10132 10131 10130 10129 10127 10125 10122 10118 10114
10128 10128 10129 10130 10131 10131 10132 10133 10133 10134 10134 10134 10134 10134 10134 10134 10134 10135 10135 10135 10135 10134 10134 10133 10132 10131 10130 10129 10127 10126 10125 10123 10121 10120 10118 10117 10117 10117 10117 10116 10116 10115 10115 10114 10113 10111 10110 10109 10107 10104 10101 10098 10094 10091
10126 10128 10128 10129 10130 10131 10131 10131 10132 10132 10132 10132 10132 10132 10131 10131 10130 10130 10129 10129 10129 10127 10126 10124 10122 10120 10117 10114 10111 10108 10106 10104 10103 10102 10101 10099 10099 10098 10097 10097 10096 10095 10095 10093 10092 10090 10087 10085 10083 10080 10076 10072 10067 10062
10123 10125 10126 10126 10126 10127 10127 10127 10128 10128 10128 10128 10128 10127 10126 10126 10125 10124 10123 10120 10117 10115 10112 10108 10104 10100 10096 10091 10088 10086 10085 10084 10083 10083 10083 10082 10081 10079 10078 10076 10075 10073 10071 10068 10066 10064 10061 10058 10056 10053 10049 10046 10042 10037
10119 10119 10120 10121 10121 10121 10121 10121 10121 10121 10121 10120 10119 10118 10118 10117 10115 10112 10108 10104 10100 10096 10091 10085 10080 10076 10074 10073 10072 10071 10068 10066 10064 10062 10060 10059 10057 10056 10054 10053 10052 10050 10048 10046 10044 10042 10039 10036 10033 10030 10027 10023 10018 10014
10112 10113 10113 10113 10113 10113 10112 10112 10111 10110 10109 10108 10107 10106 10105 10103 10099 10095 10090 10086 10079 10074 10069 10066 10063 10061 10057 10054 10052 10050 10048 10046 10044 10042 10040 10039 10037 10036 10034 10032 10030 10028 10026 10024 10021 10019 10017 10014 10011 10008 10004 10001 9997 9994
10103 10103 10103 10103 10102 10101 10100 10099 10098 10096 10095 10094 10093 10090 10087 10083 10079 10075 10069 10064 10060 10056 10053 10049 10046 10043 10041 10038 10035 10033 10031 10029 10027 10025 10023 10021 10019 10017 10016 10014 10012 10009 10008 10005 10003 10001 9998 9995 9992 9989 9986 9982 9978 9974
10093 10093 10093 10092 10091 10090 10088 10086 10084 10083 10081 10079 10076 10073 10069 10065 10061 10055 10051 10047 10044 10041 10037 10034 10031 10028 10026 10023 10020 10018 10016 10014 10012 10010 10008 10006 10004 10002 10000 9997 9995 9993 9990 9988 9986 9983 9980 9977 9974 9971 9968 9964 9960 9956
10082 10082 10081 10080 10078 10076 10075 10073 10071 10069 10066 10063 10060 10056 10052 10048 10044 10040 10036 10033 10029 10026 10022 10019 10016 10014 10011 10009 10007 10004 10003 10001 9998 9996 9994 9993 9991 9989 9986 9984 9981 9979 9977 9974 9971 9968 9965 9962 9959 9956 9952 9948 9944 9939
10071 10070 10068 10067 10065 10064 10062 10059 10057 10054 10052 10048 10045 10041 10037 10033 10030 10026 10022 10019 10016 10013 10010 10007 10004 10001 9999 9998 9995 9993 9991 9989 9987 9985 9982 9980 9978 9975 9973 9971 9968 9966 9963 9960 9957 9955 9952 9949 9945 9941 9937 9933 9929 9924
10058 10057 10056 10055 10053 10052 10049 10046 10044 10042 10039 10036 10031 10028 10024 10021 10017 10015 10011 10008 10005 10002 9999 9996 9994 9991 9989 9987 9985 9982 9980 9978 9976 9973 9971 9968 9966 9963 9961 9958 9956 9953 9951 9948 9945 9942 9939 9935 9932 9928 9924 9920 9916 9911
10047 10045 10044 10043 10041 10039 10037 10035 10032 10028 10026 10022 10019 10016 10012 10010 10007 10005 10001 9998 9995 9993 9990 9987 9985 9982 9980 9977 9974 9972 9969 9967 9965 9963 9960 9958 9956 9953 9951 9948 9945 9943 9940 9937 9934 9931 9927 9924 9920 9916 9912 9908 9904 9899